Location: C�mpuri de-Sus
(45.9500°N, 22.5500°E)
Time: 03:58:08
(UTC+00:00)

CENTAUR R/B - Pass Details

Date: 24 October 2021
Orbit: 728 x 1459 km, 63.4° (Epoch: 26 November)

Event Time Altitude Azimuth Distance (km) Brightness Sun altitude
Rises 19:52:57 0° 320° (NW) 4,140 6.5 -44.9°
Reaches altitude 10° 19:55:35 10° 322° (NW) 3,261 5.8 -45.2°
Enters shadow 19:59:44 36° 326° (NW) 2,001 4.3 -45.8°
